Location: Newark
(46.7636°N, 1.8358°W)
Time: 11:43:39
(UTC+00:00)

Vanguard 2 Rocket - Pass Details

Date: 20 October 2019
Orbit: 554 x 3326 km, 32.9° (Epoch: 12 November)

Event Time Altitude Azimuth Distance (km) Brightness Sun altitude
Rises 14:44:50 0° 275° (W) 7,307 12.1 21.1°
Reaches altitude 10° 14:50:47 10° 267° (W) 6,164 12.0 20.4°
Maximum altitude 15:05:35 31° 216° (SW) 3,925 11.9 18.5°
Drops below altitude 10° 15:16:17 10° 161° (SSE) 4,403 10.7 17.0°
Sets 15:19:43 0° 150° (SSE) 5,023 10.8 16.5°
